Location: Slemon Park
(46.4340°N, 63.8219°W)
Time: 09:54:02
(UTC-03:00)

ISS - All Passes

Search period start: 03 September 2015 00:00
Search period end: 13 September 2015 00:00
Orbit: 400 x 403 km, 51.6° (Epoch: 01 September)

Date Brightness Start Highest point End Pass type
(mag) Time Alt. Az. Time Alt. Az. Time Alt. Az.
03 Sep - 08:22:38 10° SSW 08:25:14 23° SE 08:27:54 10° E daylight
03 Sep - 09:58:10 10° WSW 10:01:26 66° NNW 10:04:41 10° ENE daylight
03 Sep - 11:35:14 10° WNW 11:38:12 31° N 11:41:11 10° ENE daylight
03 Sep - 13:11:56 10° WNW 13:15:05 44° NNE 13:18:14 10° E daylight
03 Sep - 14:48:24 10° WNW 14:51:31 42° SW 14:54:35 10° SE daylight
04 Sep - 07:30:36 10° SSE 07:32:09 13° SE 07:33:48 10° ESE daylight
04 Sep - 09:04:52 10° WSW 09:08:08 78° SSE 09:11:24 10° ENE daylight
04 Sep - 10:41:43 10° WNW 10:44:45 35° N 10:47:49 10° ENE daylight
04 Sep - 12:18:37 10° WNW 12:21:40 35° N 12:24:43 10° E daylight
04 Sep - 13:55:01 10° WNW 13:58:17 74° SSW 14:01:32 10° SE daylight
04 Sep - 15:32:49 10° WSW 15:34:14 12° SW 15:35:34 10° SSW daylight
05 Sep - 08:11:46 10° SW 08:14:53 45° SE 08:18:03 10° ENE daylight
05 Sep - 09:48:12 10° W 09:51:21 43° NNW 09:54:29 10° ENE daylight
05 Sep - 11:25:15 10° WNW 11:28:14 31° N 11:31:13 10° ENE daylight
05 Sep - 13:01:44 10° WNW 13:05:00 69° NNE 13:08:14 10° ESE daylight
05 Sep - 14:38:35 10° W 14:41:09 21° SW 14:43:41 10° S daylight
06 Sep - 07:18:59 10° SSW 07:21:44 26° SE 07:24:32 10° E daylight
06 Sep - 08:54:44 10° WSW 08:57:59 60° NNW 09:01:13 10° ENE daylight
06 Sep - 10:31:49 10° WNW 10:34:46 31° N 10:37:45 10° ENE daylight
06 Sep - 12:08:27 10° WNW 12:11:38 48° NNE 12:14:49 10° E daylight
06 Sep - 13:44:58 10° WNW 13:48:01 37° SW 13:51:03 10° SSE daylight
07 Sep - 06:26:43 10° S 06:28:38 15° SE 06:30:37 10° E daylight
07 Sep - 08:01:24 10° WSW 08:04:39 87° SSE 08:07:57 10° ENE daylight
07 Sep - 09:38:18 10° WNW 09:41:20 34° N 09:44:22 10° ENE daylight
07 Sep - 11:15:10 10° WNW 11:18:14 37° NNE 11:21:19 10° E daylight
07 Sep - 12:51:34 10° WNW 12:54:49 65° SSW 12:58:02 10° SE daylight
07 Sep - 14:29:59 10° WSW 14:30:43 10° SW 14:31:19 10° SW daylight
08 Sep - 07:08:14 10° SW 07:11:25 51° SSE 07:14:37 10° ENE daylight
08 Sep - 08:44:47 10° W 08:47:55 40° NNW 08:51:02 10° ENE daylight
08 Sep - 10:21:49 10° WNW 10:24:48 32° N 10:27:48 10° ENE daylight
08 Sep - 11:58:16 10° WNW 12:01:32 77° NNE 12:04:48 10° ESE daylight
08 Sep - 13:35:15 10° W 13:37:39 19° SW 13:39:59 10° S daylight
09 Sep - 06:15:22 10° SSW 06:18:14 29° SE 06:21:09 10° E visible
09 Sep - 07:51:19 10° W 07:54:31 55° NNW 07:57:45 10° ENE daylight
09 Sep - 09:28:23 10° WNW 09:31:21 31° N 09:34:20 10° ENE daylight
09 Sep - 11:04:59 10° WNW 11:08:12 51° NNE 11:11:24 10° E daylight
09 Sep - 12:41:34 10° WNW 12:44:31 32° SW 12:47:28 10° SSE daylight
10 Sep - 05:22:56 10° S 05:25:07 17° SE 05:27:23 10° E visible
10 Sep - 06:57:56 10° WSW 07:01:12 83° NNW 07:04:29 10° ENE daylight
10 Sep - 08:34:54 10° WNW 08:37:55 33° N 08:40:55 10° ENE daylight
10 Sep - 10:11:43 10° WNW 10:14:48 39° NNE 10:17:54 10° E daylight
10 Sep - 11:48:07 10° WNW 11:51:20 57° SSW 11:54:32 10° SE daylight
11 Sep - 06:04:43 10° SW 06:07:56 59° SSE 06:11:10 10° ENE visible
11 Sep - 07:41:23 10° W 07:44:29 38° NNW 07:47:34 10° ENE daylight
11 Sep - 09:18:22 10° WNW 09:21:23 33° N 09:24:24 10° ENE daylight
11 Sep - 10:54:48 10° WNW 10:58:05 86° NNE 11:01:21 10° ESE daylight
11 Sep - 12:31:58 10° W 12:34:09 16° SW 12:36:15 10° S daylight
12 Sep - 05:11:46 10° SSW 05:14:44 33° SE 05:17:45 10° ENE visible
12 Sep - 06:47:54 10° W 06:51:05 50° NNW 06:54:18 10° ENE daylight
12 Sep - 08:24:58 10° WNW 08:27:56 31° N 08:30:55 10° ENE daylight
12 Sep - 10:01:32 10° WNW 10:04:45 56° NNE 10:07:59 10° E daylight
12 Sep - 11:38:10 10° W 11:41:02 28° SW 11:43:53 10° SSE daylight
